Location: Caltech
(34.1382°N, 118.1253°W)
Time: 17:51:12
(UTC-07:00)

Cosmos 1980 Rocket - Visible Passes

Search period start: 22 July 2017 00:00
Search period end: 01 August 2017 00:00
Orbit: 830 x 849 km, 71.0° (Epoch: 22 July)

Date Brightness Start Highest point End Pass type
(mag) Time Alt. Az. Time Alt. Az. Time Alt. Az.
22 Jul 3.8 01:16:13 27° NE 01:16:13 27° NE 01:18:58 10° NE visible
22 Jul 3.8 02:57:58 23° WNW 02:57:58 23° WNW 03:02:14 10° N visible
23 Jul 4.0 01:00:51 24° NE 01:00:51 24° NE 01:03:14 10° NE visible
23 Jul 3.8 02:42:37 24° NW 02:42:37 24° NW 02:46:40 10° N visible
24 Jul 4.1 00:45:27 21° NE 00:45:27 21° NE 00:47:30 10° NE visible
24 Jul 3.8 02:27:13 25° NW 02:27:13 25° NW 02:31:05 10° N visible
25 Jul 4.3 00:30:02 19° NE 00:30:02 19° NE 00:31:45 10° NE visible
25 Jul 3.8 02:11:48 26° NW 02:11:48 26° NW 02:15:30 10° N visible
26 Jul 4.4 00:14:36 17° NE 00:14:36 17° NE 00:15:59 10° NE visible
26 Jul 3.8 01:56:21 27° NW 01:56:21 27° NW 01:59:54 10° N visible
26 Jul 4.4 23:59:07 15° NE 23:59:07 15° NE 00:00:14 10° NE visible
27 Jul 3.8 01:40:52 28° NNW 01:40:52 28° NNW 01:44:18 10° N visible
27 Jul 4.5 23:43:36 14° NE 23:43:36 14° NE 23:44:28 10° NE visible
28 Jul 3.8 01:25:21 28° NNW 01:25:21 28° NNW 01:28:42 10° N visible
28 Jul 4.5 23:28:03 13° NE 23:28:03 13° NE 23:28:41 10° NE visible
29 Jul 3.8 01:09:49 29° NNW 01:09:49 29° NNW 01:13:05 10° N visible
29 Jul 4.5 23:12:29 12° NE 23:12:29 12° NE 23:12:53 10° NE visible
30 Jul 3.8 00:54:13 29° NNW 00:54:13 29° NNW 00:57:28 10° N visible
30 Jul 4.6 22:56:51 11° NE 22:56:51 11° NE 22:57:04 10° NE visible
31 Jul 3.8 00:38:36 30° NNW 00:38:36 30° NNW 00:41:51 10° N visible
31 Jul 4.6 22:41:12 10° NE 22:41:12 10° NE 22:41:15 10° NE visible
